Location: Asheville, NC
(35.6000°N, 82.5500°W)
Time: 16:10:56
(UTC-05:00)

DOVE 4 - Pass Details

Date: 12 January 2018
Orbit: 588 x 804 km, 97.7° (Epoch: 16 January)

Event Time Altitude Azimuth Distance (km) Brightness Sun altitude
Rises 05:42:06 0° 5° (N) 2,833 ? -23.5°
Enters shadow 05:42:14 - 5° (N) 2,775 ? -23.5°
Exits shadow 05:54:14 - 206° (SSW) 2,708 ? -21.1°
Sets 05:54:49 0° 205° (SSW) 2,948 ? -21.0°
